sat.trackr.live / text

‹ back to catalog

EXPRESS-AT2

NORAD 39613 · 2014-010B

PAYLOAD ACTIVE UNKNOWN

§ Identity

Operator
Country
CIS
Launch date
2014-03-15
Launch site
TYMSC
Launch vehicle
Mass (kg)
RCS (m²)
47.47

Purposes: comms

External: N2YO · Heavens-Above · Gunter

§ Orbital elements

Epoch: 2026-09-20T03:30:04.081248Z

Period
1,436.08 min
Inclination
0.0154°
Eccentricity
0.0000337
Mean motion
1.00273277 rev/d
Perigee alt
35,784.8 km
Apogee alt
35,787.6 km
Semi-major
42,164.3 km
B*
0.0000e+0
RAAN
220.3531°
Arg perigee
270.6592°
Mean anomaly
336.5660°
Rev number
4,545

§ Raw data

EXPRESS-AT21 39613U 14010B   26263.14588057  .00000074  00000+0  00000+0 0  99942 39613   0.0154 220.3531 0000337 270.6592 336.5660  1.00273277 45450

JSON: /api/v1/satellites/39613 · /tle

For live sub-satellite position, see the globe view (requires WebGL).

§ Visibility from observer

Set your observer location to see the next 7 days of passes ≥ 10°. The values pass through the URL so the page stays shareable.

No JS? Fill the form by hand. The geolocation button needs JavaScript.